Date,TemperatureHighF,TemperatureAvgF,TemperatureLowF,DewpointHighF,DewpointAvgF,DewpointLowF,HumidityHigh,HumidityAvg,HumidityLow,PressureMaxIn,PressureMinIn,WindSpeedMaxMPH,WindSpeedAvgMPH,GustSpeedMaxMPH,PrecipitationSumIn
2013-6-1,89,79,68,73,68,62,82,68,55,29.94,29.79,11,2,0,0.00
2013-6-2,86,76,67,73,69,65,94,79,64,29.80,29.66,12,2,0,0.06
2013-6-3,70,64,55,66,54,35,96,72,40,29.92,29.77,8,1,0,0.01
2013-6-4,72,60,49,49,44,41,76,57,40,30.11,29.92,18,2,0,0.00
2013-6-5,76,62,48,51,46,41,82,57,36,30.19,30.07,5,0,0,0.00
2013-6-6,71,62,53,56,52,46,94,72,48,30.12,30.01,10,1,0,0.55
2013-6-7,58,56,55,57,55,54,96,95,93,30.00,29.77,6,0,0,0.51
2013-6-8,70,61,53,61,57,52,97,86,71,30.03,29.70,10,1,0,0.19
2013-6-9,78,66,54,60,56,53,95,72,48,30.15,30.03,7,1,0,0.00
2013-6-10,65,61,55,63,59,53,96,92,82,30.16,29.85,2,0,0,0.58
2013-6-11,69,62,58,67,60,56,97,92,83,29.84,29.54,8,1,0,1.00
2013-6-12,76,65,57,56,54,53,85,71,48,29.82,29.63,8,2,0,0.00
2013-6-13,58,56,54,57,55,52,96,94,85,29.81,29.65,0,0,0,1.45
2013-6-14,77,64,53,63,57,52,97,82,54,29.85,29.68,6,0,0,0.07
2013-6-15,77,66,54,57,50,43,92,59,34,29.97,29.86,11,2,0,0.00
2013-6-16,70,64,55,63,56,45,87,75,56,29.95,29.68,9,2,0,0.00
2013-6-17,81,68,60,68,62,58,95,84,55,29.89,29.76,7,1,0,0.36
2013-6-18,67,61,55,60,56,52,95,83,66,29.95,29.88,5,0,0,0.00
2013-6-19,74,62,50,52,49,45,94,66,40,30.15,29.94,4,0,0,0.00
2013-6-20,80,65,48,59,52,46,93,65,38,30.26,30.15,9,0,0,0.00
2013-6-21,86,72,59,63,56,47,90,62,30,30.24,30.17,5,0,0,0.00
2013-6-22,82,74,64,66,63,59,84,71,56,30.19,30.04,13,2,0,0.00
2013-6-23,89,78,70,74,68,62,81,70,54,30.10,29.94,12,3,0,0.00
2013-6-24,91,76,67,74,69,65,96,80,51,30.00,29.89,7,1,0,0.29
2013-6-25,87,73,64,74,69,63,97,88,60,29.95,29.73,7,1,0,0.37
2013-6-26,82,74,69,72,69,67,97,85,67,29.79,29.73,5,0,0,0.00
2013-6-27,84,75,66,72,69,65,96,82,59,29.79,29.57,5,0,0,0.04
2013-6-28,78,72,68,72,68,65,96,87,65,29.57,29.34,16,2,0,1.60
2013-6-29,80,72,67,73,67,66,97,85,64,29.66,29.45,10,1,0,0.15
2013-6-30,84,72,65,72,67,63,95,87,65,29.89,29.66,8,1,0,0.19